カタログに戻る

CZ-6A DEB

運用中PO
NORAD 61406·DEBRIS·🇨🇳 China

打ち上げ Aug 6, 2024 から Taiyuan Satellite Launch Center

Loading…

次のパス (今後24時間)

TLE

最新Source: Space-Track

元期: Sep 14, 2026, 00:16 UTC

1 61406U 24140XX  26257.01165421  .00000500  00000-0  29340-3 0  9996
2 61406  88.9930 267.0104 0128223 343.3469  16.3518 14.02798702102845

AllMySatでCZ-6A DEBをリアルタイム追跡

Download on the App Store